Melfa, VA

5:44 PM EDT on July 20, 2017 (GMT -0400)
Accomack County

Weather History for KMFV - December, 2013

Change the Weather History Date:

Monday, December 9, 2013

  Actual Average (KWAL) Record (KWAL)
Temperature  
Mean Temperature 45 °F -  
Max Temperature 48 °F 49 °F 69 °F (1978)
Min Temperature 42 °F 34 °F 19 °F (2006)
Degree Days  
Heating Degree Days 20    
Moisture  
Dew Point 42 °F    
Average Humidity 89    
Maximum Humidity 93    
Minimum Humidity 87    
Precipitation  
Precipitation 0.33 in - - ()
Sea Level Pressure  
Sea Level Pressure 30.13 in    
Wind  
Wind Speed 7 mph (West)    
Max Wind Speed 13 mph    
Max Gust Speed 16 mph    
Visibility 8 miles    
Events Rain    
Averages and records for this station are not official NWS values.
T = Trace of Precipitation, MM = Missing Value Source: NWS Daily Summary

Daily Weather History Graph

Daily Weather History Graph

Search for Another Location

Airport or City:

Trip Planner

Search our weather history database for the weather conditions in past years. The results will help you decide how hot, cold, wet, or windy it might be!

Date:

Astronomy

Dec. 09, 2013 Rise Set
Actual Time 7:06 AM EST 4:44 PM EST
Civil Twilight 6:37 AM EST 5:13 PM EST
Nautical Twilight 6:04 AM EST 5:46 PM EST
Astronomical Twilight 5:32 AM EST 6:18 PM EST
Moon 12:05 PM EST (12/9) No Moon Set
Length of Visible Light 10h 36m
Length of Day
9h 37m
Waxing Crescent, 51% of the Moon is Illuminated
Dec 9
Waxing Crescent
Dec 17
Full
Dec 25
Last Quarter
Jan 1
New
Jan 7
First Quarter

Hourly Weather History & Observations

Time (EST) Temp. Windchill Dew Point Humidity Pressure Visibility Wind Dir Wind Speed Gust Speed Precip Events Conditions
12:15 AM 44.6 °F 39.2 °F 42.8 °F 93% 30.22 in 1.5 mi NW 10.4 mph - N/A   Overcast
12:35 AM 44.6 °F 40.2 °F 41.0 °F 87% 30.21 in 1.2 mi NW 8.1 mph - N/A   Overcast
12:55 AM 42.8 °F 38.0 °F 41.0 °F 93% 30.19 in 1.8 mi NW 8.1 mph - 0.01 in   Drizzle
1:15 AM 42.8 °F 37.5 °F 41.0 °F 93% 30.20 in 1.2 mi NW 9.2 mph - N/A   Overcast
1:35 AM 42.8 °F 38.0 °F 39.2 °F 87% 30.21 in 1.5 mi WNW 8.1 mph - N/A   Overcast
1:55 AM 42.8 °F 38.0 °F 39.2 °F 87% 30.20 in 1.5 mi NW 8.1 mph - N/A   Overcast
2:18 AM 42.8 °F 38.6 °F 39.2 °F 87% 30.19 in 2.0 mi NW 6.9 mph - N/A   Overcast
2:35 AM 42.8 °F 38.0 °F 41.0 °F 93% 30.19 in 2.0 mi WNW 8.1 mph - N/A   Overcast
2:55 AM 42.8 °F 37.5 °F 41.0 °F 93% 30.18 in 2.5 mi NW 9.2 mph - N/A   Overcast
3:15 AM 42.8 °F 37.0 °F 41.0 °F 93% 30.17 in 2.5 mi NW 10.4 mph - N/A   Overcast
3:35 AM 42.8 °F 38.0 °F 41.0 °F 93% 30.16 in 2.5 mi NW 8.1 mph - N/A   Overcast
3:55 AM 42.8 °F 40.1 °F 41.0 °F 93% 30.15 in 2.0 mi WNW 4.6 mph - N/A   Overcast
4:15 AM 42.8 °F 41.1 °F 41.0 °F 93% 30.13 in 2.0 mi WNW 3.5 mph - N/A   Light Drizzle
4:35 AM 42.8 °F 38.6 °F 41.0 °F 93% 30.15 in 4.0 mi West 6.9 mph - N/A Rain Light Rain
4:55 AM 42.8 °F 38.0 °F 41.0 °F 93% 30.15 in 7.0 mi West 8.1 mph - N/A   Overcast
5:16 AM 44.6 °F 39.7 °F 41.0 °F 87% 30.17 in 7.0 mi West 9.2 mph - N/A Rain Rain
5:36 AM 42.8 °F 37.5 °F 41.0 °F 93% 30.17 in 10.0 mi West 9.2 mph - N/A Rain Light Rain
5:55 AM 42.8 °F 36.2 °F 41.0 °F 93% 30.17 in 10.0 mi West 12.7 mph 16.1 mph N/A   Drizzle
6:15 AM 42.8 °F 38.6 °F 39.2 °F 87% 30.17 in 10.0 mi West 6.9 mph - 0.01 in   Light Drizzle
6:35 AM 42.8 °F 40.1 °F 39.2 °F 87% 30.15 in 10.0 mi West 4.6 mph - 0.01 in Rain Light Rain
6:57 AM 42.8 °F - 39.2 °F 87% 30.14 in 10.0 mi Calm Calm - N/A Rain Light Rain
7:16 AM 42.8 °F 38.6 °F 39.2 °F 87% 30.17 in 10.0 mi West 6.9 mph - N/A   Drizzle
7:36 AM 42.8 °F 38.6 °F 39.2 °F 87% 30.18 in 10.0 mi West 6.9 mph - N/A Rain Light Rain
7:56 AM 42.8 °F 39.3 °F 39.2 °F 87% 30.16 in 10.0 mi WSW 5.8 mph - N/A Rain Rain
8:17 AM 42.8 °F 40.1 °F 39.2 °F 87% 30.16 in 10.0 mi West 4.6 mph - N/A Rain Light Rain
8:36 AM 42.8 °F 41.1 °F 39.2 °F 87% 30.16 in 10.0 mi West 3.5 mph - 0.01 in   Drizzle
8:57 AM 42.8 °F 41.1 °F 39.2 °F 87% 30.16 in 10.0 mi West 3.5 mph - N/A   Light Drizzle
9:16 AM 42.8 °F 38.0 °F 39.2 °F 87% 30.17 in 10.0 mi WNW 8.1 mph - 0.01 in Rain Light Rain
9:36 AM 42.8 °F 39.3 °F 39.2 °F 87% 30.18 in 10.0 mi West 5.8 mph - 0.01 in   Overcast
9:56 AM 42.8 °F 40.1 °F 39.2 °F 87% 30.16 in 10.0 mi West 4.6 mph - N/A   Overcast
10:16 AM 42.8 °F 39.3 °F 39.2 °F 87% 30.17 in 7.0 mi WSW 5.8 mph - N/A   Light Drizzle
10:41 AM 42.8 °F 40.1 °F 39.2 °F 87% 30.15 in 10.0 mi SW 4.6 mph - N/A   Overcast
10:55 AM 42.8 °F 40.1 °F 39.2 °F 87% 30.14 in 10.0 mi SW 4.6 mph - N/A   Overcast
11:17 AM 42.8 °F 40.1 °F 39.2 °F 87% 30.13 in 7.0 mi SW 4.6 mph - N/A Rain Light Rain
11:37 AM 42.8 °F 41.1 °F 39.2 °F 87% 30.13 in 7.0 mi West 3.5 mph - 0.01 in Rain Rain
11:56 AM 42.8 °F 40.1 °F 39.2 °F 87% 30.13 in 10.0 mi WSW 4.6 mph - N/A Rain Light Rain
12:16 PM 42.8 °F 39.3 °F 39.2 °F 87% 30.12 in 10.0 mi WSW 5.8 mph - N/A Rain Light Rain
12:36 PM 44.6 °F 42.2 °F 41.0 °F 87% 30.11 in 5.0 mi West 4.6 mph - N/A Rain Rain
12:56 PM 44.6 °F 41.4 °F 41.0 °F 87% 30.09 in 10.0 mi WSW 5.8 mph - N/A Rain Light Rain
1:16 PM 44.6 °F 41.4 °F 41.0 °F 87% 30.09 in 10.0 mi SW 5.8 mph - N/A Rain Light Rain
1:36 PM 44.6 °F 41.4 °F 42.8 °F 93% 30.08 in 10.0 mi SW 5.8 mph - 0.01 in   Light Drizzle
1:56 PM 44.6 °F 41.4 °F 42.8 °F 93% 30.07 in 10.0 mi SW 5.8 mph - N/A   Overcast
2:16 PM 44.6 °F 40.7 °F 42.8 °F 93% 30.07 in 7.0 mi SW 6.9 mph - N/A Rain Rain
2:37 PM 46.4 °F 43.5 °F 42.8 °F 87% 30.06 in 10.0 mi SSW 5.8 mph - 0.02 in Rain Light Rain
2:56 PM 46.4 °F 42.9 °F 42.8 °F 87% 30.05 in 10.0 mi SSW 6.9 mph - N/A Rain Light Rain
3:16 PM 46.4 °F 42.9 °F 44.6 °F 93% 30.07 in 7.0 mi SSW 6.9 mph - 0.01 in Rain Rain
3:37 PM 46.4 °F 42.9 °F 44.6 °F 93% 30.07 in 7.0 mi SW 6.9 mph - 0.05 in Rain Rain
3:56 PM 46.4 °F 43.5 °F 44.6 °F 93% 30.06 in 7.0 mi SW 5.8 mph - N/A Rain Rain
4:16 PM 46.4 °F 42.4 °F 44.6 °F 93% 30.06 in 7.0 mi SW 8.1 mph - 0.01 in Rain Rain
4:36 PM 48.2 °F - 44.6 °F 87% 30.06 in 10.0 mi SW 6.9 mph - 0.03 in Rain Light Rain
4:55 PM 48.2 °F - 44.6 °F 87% - 10.0 mi West 4.6 mph - N/A   Drizzle
5:16 PM 48.2 °F - 46.4 °F 93% 30.07 in 10.0 mi WSW 8.1 mph - 0.02 in Rain Light Rain
5:35 PM 48.2 °F - 46.4 °F 93% 30.07 in 7.0 mi West 5.8 mph - 0.07 in Rain Heavy Rain
5:55 PM 48.2 °F - 46.4 °F 93% 30.07 in 10.0 mi West 6.9 mph - 0.11 in Rain Light Rain
6:15 PM 48.2 °F - 44.6 °F 87% 30.07 in 10.0 mi West 5.8 mph - 0.01 in Rain Rain
6:36 PM 48.2 °F - 44.6 °F 87% 30.07 in 10.0 mi West 4.6 mph - 0.02 in   Overcast
6:55 PM 48.2 °F - 44.6 °F 87% 30.08 in 10.0 mi West 4.6 mph - 0.02 in   Overcast
7:15 PM 48.2 °F - 44.6 °F 87% 30.09 in 10.0 mi WNW 5.8 mph - N/A Rain Light Rain
7:35 PM 46.4 °F 44.3 °F 44.6 °F 93% 30.10 in 10.0 mi WNW 4.6 mph - N/A Rain Light Rain
7:55 PM 46.4 °F - 44.6 °F 93% 30.10 in 10.0 mi Calm Calm - 0.01 in Rain Light Rain
8:16 PM 46.4 °F 45.2 °F 44.6 °F 93% 30.08 in 7.0 mi North 3.5 mph - 0.01 in Rain Light Rain
8:37 PM 46.4 °F 44.3 °F 44.6 °F 93% 30.10 in 10.0 mi NW 4.6 mph - 0.02 in   Overcast
8:55 PM 46.4 °F 43.5 °F 42.8 °F 87% 30.10 in 7.0 mi NW 5.8 mph - 0.03 in Rain Light Rain
9:15 PM 46.4 °F 45.2 °F 42.8 °F 87% 30.11 in 10.0 mi West 3.5 mph - N/A Rain Light Rain
9:36 PM 46.4 °F 44.3 °F 42.8 °F 87% 30.09 in 10.0 mi NW 4.6 mph - N/A   Light Drizzle
9:55 PM 46.4 °F 42.9 °F 42.8 °F 87% 30.10 in 10.0 mi WNW 6.9 mph - N/A   Overcast
10:15 PM 46.4 °F 45.2 °F 42.8 °F 87% 30.10 in 10.0 mi NNW 3.5 mph - N/A   Overcast
10:35 PM 46.4 °F 43.5 °F 42.8 °F 87% 30.10 in 10.0 mi WNW 5.8 mph - N/A   Overcast
10:55 PM 46.4 °F - 42.8 °F 87% 30.09 in 10.0 mi Calm Calm - N/A   Overcast
11:15 PM 44.6 °F 43.1 °F 42.8 °F 93% 30.09 in 10.0 mi NNW 3.5 mph - N/A   Overcast
11:36 PM 44.6 °F 43.1 °F 42.8 °F 93% 30.09 in 10.0 mi NNW 3.5 mph - N/A   Overcast
11:55 PM 44.6 °F 43.1 °F 42.8 °F 93% 30.08 in 10.0 mi NNW 3.5 mph - N/A   Overcast